Simultaneous Nadir Overpasses (SNOs) Predictions

Prediction of SNOs between METOP-B and NOAA-19 Satellite Orbit:

Table of predicted SNOs for the next 14.0 days since TLE Epoch: 3/19/2016
Index Date (METOP-B) Time (METOP-B) Lat,Lon (METOP-B) SZA (METOP-B ) Date (NOAA-19) Time (NOAA-19) Lat,Lon (NOAA-19) SZA (NOAA-19 ) Distance(km) Time Diff (sec)
1 03/22/2016 08:08:22 -75.88,-122.48 105.04 03/22/2016 08:07:07 -75.89,-122.56 105.03 2.46 75
2 03/22/2016 08:59:02 75.87, 44.82 74.94 03/22/2016 08:58:10 75.84, 44.84 74.91 3.50 52
3 03/22/2016 09:49:44 -75.86,-147.88 105.09 03/22/2016 09:49:08 -75.84,-147.89 105.11 2.88 36
4 03/22/2016 10:40:24 75.85, 19.42 74.89 03/22/2016 10:40:12 75.83, 19.36 74.88 2.89 12
5 03/22/2016 11:31:06 -75.84,-173.28 105.13 03/22/2016 11:31:10 -75.83,-173.37 105.15 2.97 4
6 03/22/2016 12:21:47 75.79, -6.13 74.80 03/22/2016 12:22:14 75.83, -6.12 74.84 4.10 27
7 03/22/2016 13:12:29 -75.78, 161.17 105.22 03/22/2016 13:13:11 -75.78, 161.31 105.23 3.82 42
8 03/22/2016 14:03:09 75.77, -31.53 74.76 03/22/2016 14:04:15 75.77, -31.45 74.76 2.13 66
9 03/22/2016 14:53:57 -75.48, 134.89 105.54 03/22/2016 14:55:07 -75.50, 136.74 105.55 51.65 70
10 04/01/2016 23:13:40 -75.91, 11.28 109.17 04/01/2016 23:12:28 -75.89, 11.31 109.18 1.76 72
11 04/02/2016 00:04:20 75.88, 178.53 70.80 04/02/2016 00:03:29 75.89, 178.57 70.81 1.32 51
12 04/02/2016 00:55:02 -75.89, -14.12 109.21 04/02/2016 00:54:30 -75.89, -14.17 109.22 1.61 32
13 04/02/2016 01:45:42 75.86, 153.13 70.75 04/02/2016 01:45:31 75.88, 153.08 70.77 2.46 11
14 04/02/2016 02:36:24 -75.87, -39.52 109.26 04/02/2016 02:36:32 -75.88, -39.66 109.25 3.86 8
15 04/02/2016 03:27:04 75.85, 127.73 70.71 04/02/2016 03:27:32 75.83, 127.76 70.69 1.78 28




NCC Satellite Simultaneous Nadir Overpasses (SNOs) Prediction Service
